| time (UTC) | temp C | wind direction | speed KPH | gust KPH | rain 1hr cm | rain 24hr cm | rain mn cm | humidity % | barometer mb |
| 20260507115051 | 5 | 0 | 1.6 | 4.8 | 0.00 | 0.23 | 0.00 | 99 | 1013.8 |
| 20260507114551 | 4 | 293 | 3.2 | 4.8 | 0.00 | 0.23 | 0.00 | 99 | 1013.6 |
| 20260507114050 | 4 | 344 | 3.2 | 4.8 | 0.00 | 0.25 | 0.00 | 99 | 1013.5 |
| 20260507113813 | 4 | 124 | 0.0 | 3.2 | 0.00 | 0.25 | 0.00 | 99 | 1013.4 |
| 20260507113051 | 4 | 222 | 3.2 | 3.2 | 0.00 | 0.28 | 0.00 | 99 | 1013.5 |
| 20260507112550 | 4 | 347 | 0.0 | 4.8 | 0.00 | 0.28 | 0.00 | 99 | 1013.5 |
| 20260507112050 | 4 | 299 | 3.2 | 4.8 | 0.00 | 0.28 | 0.00 | 99 | 1013.5 |
| 20260507111810 | 4 | 353 | 0.0 | 6.4 | 0.00 | 0.30 | 0.00 | 99 | 1013.3 |
| 20260507111050 | 4 | 292 | 1.6 | 6.4 | 0.00 | 0.30 | 0.00 | 99 | 1013.5 |
| 20260507110550 | 4 | 158 | 1.6 | 6.4 | 0.00 | 0.33 | 0.00 | 99 | 1013.2 |
| 20260507110049 | 4 | 154 | 3.2 | 6.4 | 0.00 | 0.33 | 0.00 | 99 | 1013.1 |
| 20260507105549 | 4 | 133 | 3.2 | 3.2 | 0.00 | 0.33 | 0.00 | 99 | 1013.2 |
| 20260507105049 | 4 | 23 | 3.2 | 4.8 | 0.00 | 0.36 | 0.00 | 99 | 1013.2 |
| 20260507104548 | 3 | 5 | 1.6 | 4.8 | 0.00 | 0.36 | 0.00 | 99 | 1013.2 |
| 20260507104049 | 3 | 37 | 0.0 | 3.2 | 0.00 | 0.38 | 0.00 | 95 | 1013.2 |
| 20260507103549 | 3 | 355 | 3.2 | 3.2 | 0.00 | 0.38 | 0.00 | 94 | 1013.0 |
| 20260507103047 | 3 | 40 | 0.0 | 6.4 | 0.00 | 0.38 | 0.00 | 94 | 1013.0 |
| 20260507103038 | 3 | 52 | 1.6 | 6.4 | 0.00 | 0.41 | 0.00 | 94 | 1013.1 |
| 20260507102047 | 3 | 338 | 3.2 | 8.0 | 0.00 | 0.41 | 0.00 | 95 | 1013.1 |
| 20260507101547 | 3 | 344 | 3.2 | 8.0 | 0.00 | 0.43 | 0.00 | 98 | 1013.0 |
| 20260507101047 | 3 | 341 | 0.0 | 3.2 | 0.00 | 0.43 | 0.00 | 99 | 1013.1 |
| 20260507100547 | 3 | 18 | 3.2 | 3.2 | 0.00 | 0.46 | 0.00 | 98 | 1013.0 |
| 20260507100046 | 3 | 23 | 0.0 | 3.2 | 0.00 | 0.46 | 0.00 | 99 | 1013.1 |
| 20260507095546 | 3 | 312 | 3.2 | 4.8 | 0.00 | 0.48 | 0.00 | 99 | 1012.8 |
| 20260507095306 | 3 | 200 | 0.0 | 4.8 | 0.00 | 0.51 | 0.00 | 99 | 1012.8 |
| 20260507094547 | 3 | 3 | 3.2 | 3.2 | 0.00 | 0.51 | 0.00 | 99 | 1012.9 |
| 20260507094312 | 3 | 159 | 1.6 | 3.2 | 0.00 | 0.53 | 0.00 | 92 | 1012.9 |
| 20260507093815 | 3 | 183 | 3.2 | 4.8 | 0.00 | 0.56 | 0.00 | 93 | 1013.0 |
| 20260507093045 | 3 | 218 | 0.0 | 4.8 | 0.00 | 0.58 | 0.00 | 93 | 1012.9 |
| 20260507092545 | 3 | 207 | 0.0 | 4.8 | 0.00 | 0.61 | 0.00 | 95 | 1012.6 |
| 20260507092045 | 3 | 179 | 3.2 | 4.8 | 0.00 | 0.61 | 0.00 | 99 | 1012.8 |
| 20260507091545 | 3 | 180 | 3.2 | 4.8 | 0.00 | 0.64 | 0.00 | 98 | 1013.0 |
| 20260507091044 | 3 | 200 | 3.2 | 4.8 | 0.00 | 0.66 | 0.00 | 98 | 1013.0 |
| 20260507090544 | 3 | 144 | 3.2 | 4.8 | 0.00 | 0.71 | 0.00 | 99 | 1013.0 |
| 20260507090044 | 3 | 235 | 0.0 | 4.8 | 0.00 | 0.74 | 0.00 | 99 | 1013.0 |
| 20260507085808 | 3 | 175 | 3.2 | 4.8 | 0.00 | 0.74 | 0.00 | 98 | 1012.8 |
| 20260507085043 | 3 | 161 | 1.6 | 4.8 | 0.00 | 0.76 | 0.00 | 99 | 1012.9 |
| 20260507084543 | 2 | 160 | 0.0 | 1.6 | 0.00 | 0.76 | 0.00 | 91 | 1013.1 |
| 20260507084043 | 2 | 147 | 0.0 | 1.6 | 0.00 | 0.79 | 0.00 | 90 | 1012.9 |
| 20260507083544 | 2 | 147 | 0.0 | 3.2 | 0.00 | 0.79 | 0.00 | 92 | 1013.0 |
| 20260507083043 | 3 | 230 | 0.0 | 3.2 | 0.00 | 0.79 | 0.00 | 94 | 1012.9 |
| 20260507082542 | 2 | 303 | 1.6 | 3.2 | 0.00 | 0.81 | 0.00 | 99 | 1013.0 |
| 20260507082042 | 3 | 135 | 0.0 | 3.2 | 0.00 | 0.81 | 0.00 | 99 | 1012.9 |
| 20260507081542 | 3 | 230 | 0.0 | 3.2 | 0.00 | 0.81 | 0.00 | 99 | 1012.8 |
| 20260507081042 | 3 | 252 | 0.0 | 3.2 | 0.00 | 0.84 | 0.00 | 94 | 1013.0 |
| 20260507080542 | 3 | 95 | 1.6 | 3.2 | 0.00 | 0.84 | 0.00 | 99 | 1012.9 |
| 20260507080306 | 3 | 120 | 0.0 | 1.6 | 0.00 | 0.84 | 0.00 | 92 | 1012.8 |
| 20260507075542 | 3 | 296 | 0.0 | 0.0 | 0.00 | 0.86 | 0.00 | 92 | 1012.8 |
| 20260507075042 | 3 | 296 | 0.0 | 3.2 | 0.00 | 0.89 | 0.00 | 93 | 1013.0 |
| 20260507074749 | 3 | 307 | 0.0 | 3.2 | 0.00 | 0.89 | 0.00 | 99 | 1013.0 |
| 20260507074639 | 3 | 296 | 0.0 | 3.2 | 0.00 | 0.89 | 0.00 | 95 | 1012.6 |
| 20260507073541 | 3 | 124 | 0.0 | 3.2 | 0.00 | 0.89 | 0.00 | 98 | 1012.5 |
| 20260507073259 | 3 | 124 | 0.0 | 3.2 | 0.00 | 0.91 | 0.00 | 98 | 1012.8 |
| 20260507072800 | 3 | 149 | 3.2 | 3.2 | 0.00 | 0.94 | 0.00 | 99 | 1012.9 |
| 20260507072040 | 3 | 145 | 3.2 | 3.2 | 0.00 | 0.94 | 0.00 | 98 | 1013.0 |
| 20260507071540 | 3 | 129 | 1.6 | 1.6 | 0.00 | 0.99 | 0.00 | 93 | 1012.9 |
| 20260507071039 | 3 | 129 | 0.0 | 0.0 | 0.00 | 1.02 | 0.00 | 93 | 1013.0 |
| 20260507070540 | 3 | 129 | 0.0 | 0.0 | 0.00 | 1.04 | 0.00 | 94 | 1013.0 |
| 20260507070040 | 4 | 129 | 0.0 | 1.6 | 0.00 | 1.09 | 0.00 | 99 | 1013.2 |
| 20260507065539 | 4 | 130 | 0.0 | 1.6 | 0.00 | 1.12 | 0.00 | 98 | 1013.1 |
| 20260507065039 | 4 | 157 | 0.0 | 1.6 | 0.00 | 1.12 | 0.00 | 98 | 1013.1 |
| 20260507064539 | 4 | 164 | 0.0 | 1.6 | 0.00 | 1.14 | 0.00 | 97 | 1013.3 |
| 20260507064038 | 4 | 173 | 0.0 | 3.2 | 0.00 | 1.17 | 0.00 | 97 | 1013.2 |
| 20260507063538 | 5 | 193 | 0.0 | 3.2 | 0.00 | 1.22 | 0.00 | 97 | 1013.2 |
| 20260507063258 | 5 | 161 | 0.0 | 3.2 | 0.00 | 1.22 | 0.00 | 97 | 1013.1 |
| 20260507062538 | 5 | 189 | 1.6 | 4.8 | 0.00 | 1.22 | 0.00 | 97 | 1013.0 |
| 20260507062037 | 5 | 197 | 1.6 | 4.8 | 0.00 | 1.24 | 0.00 | 97 | 1013.1 |
| 20260507061537 | 5 | 226 | 3.2 | 4.8 | 0.00 | 1.27 | 0.00 | 97 | 1013.2 |
| 20260507061037 | 5 | 170 | 1.6 | 4.8 | 0.00 | 1.27 | 0.00 | 97 | 1013.0 |
| 20260507060537 | 5 | 189 | 4.8 | 4.8 | 0.00 | 1.32 | 0.00 | 97 | 1013.4 |
| 20260507060037 | 5 | 212 | 1.6 | 3.2 | 0.00 | 1.32 | 0.00 | 97 | 1013.3 |
| 20260507055537 | 5 | 212 | 0.0 | 3.2 | 0.00 | 1.35 | 0.00 | 96 | 1013.2 |
| 20260507055037 | 5 | 151 | 1.6 | 3.2 | 0.00 | 1.37 | 0.00 | 96 | 1013.1 |
| 20260507054536 | 5 | 125 | 0.0 | 3.2 | 0.00 | 1.40 | 0.00 | 96 | 1013.3 |
| 20260507054036 | 5 | 129 | 1.6 | 3.2 | 0.00 | 1.42 | 0.00 | 95 | 1013.4 |
| 20260507053536 | 5 | 130 | 0.0 | 3.2 | 0.00 | 1.47 | 0.00 | 95 | 1013.6 |
| 20260507053036 | 5 | 212 | 0.0 | 3.2 | 0.00 | 1.52 | 0.00 | 95 | 1013.8 |
| 20260507052535 | 5 | 175 | 1.6 | 3.2 | 0.00 | 1.57 | 0.00 | 95 | 1013.9 |
| 20260507052035 | 5 | 191 | 3.2 | 3.2 | 0.00 | 1.60 | 0.00 | 95 | 1013.7 |
| 20260507051535 | 5 | 113 | 0.0 | 4.8 | 0.00 | 1.63 | 0.00 | 94 | 1013.6 |
| 20260507051252 | 5 | 276 | 0.0 | 4.8 | 0.00 | 1.65 | 0.00 | 94 | 1013.9 |
| 20260507050535 | 5 | 179 | 4.8 | 6.4 | 0.00 | 1.65 | 0.00 | 94 | 1013.9 |
| 20260507050035 | 5 | 183 | 1.6 | 6.4 | 0.00 | 1.68 | 0.00 | 94 | 1013.8 |
| 20260507045534 | 5 | 160 | 1.6 | 6.4 | 0.00 | 1.70 | 0.00 | 94 | 1013.8 |
| 20260507045255 | 5 | 102 | 3.2 | 4.8 | 0.00 | 1.70 | 0.00 | 94 | 1013.9 |
| 20260507044756 | 5 | 224 | 1.6 | 4.8 | 0.00 | 1.73 | 0.00 | 94 | 1013.8 |
| 20260507044250 | 5 | 141 | 0.0 | 4.8 | 0.00 | 1.73 | 0.00 | 94 | 1014.0 |
| 20260507043533 | 5 | 291 | 0.0 | 3.2 | 0.00 | 1.75 | 0.00 | 94 | 1014.0 |
| 20260507043033 | 5 | 37 | 0.0 | 4.8 | 0.00 | 1.75 | 0.00 | 94 | 1013.8 |
| 20260507042533 | 5 | 37 | 0.0 | 6.4 | 0.00 | 1.78 | 0.00 | 93 | 1013.8 |
| 20260507042033 | 5 | 185 | 0.0 | 6.4 | 0.00 | 1.78 | 0.00 | 92 | 1013.8 |
| 20260507041754 | 5 | 129 | 0.0 | 6.4 | 0.00 | 1.80 | 0.00 | 92 | 1013.7 |
| 20260507041258 | 5 | 188 | 1.6 | 6.4 | 0.00 | 1.83 | 0.00 | 91 | 1013.6 |
| 20260507040532 | 5 | 192 | 4.8 | 8.0 | 0.00 | 1.88 | 0.00 | 92 | 1013.7 |
| 20260507040031 | 5 | 198 | 1.6 | 9.7 | 0.00 | 1.88 | 0.00 | 92 | 1014.0 |
| 20260507035531 | 5 | 186 | 4.8 | 9.7 | 0.00 | 1.91 | 1.88 | 93 | 1013.7 |
| 20260507035031 | 5 | 278 | 4.8 | 6.4 | 0.00 | 1.93 | 1.88 | 94 | 1013.8 |
| 20260507034755 | 5 | 224 | 0.0 | 4.8 | 0.00 | 1.96 | 1.88 | 94 | 1013.9 |
| 20260507034031 | 5 | 338 | 3.2 | 6.4 | 0.00 | 1.98 | 1.88 | 94 | 1013.7 |
| 20260507033530 | 5 | 3 | 1.6 | 6.4 | 0.00 | 1.98 | 1.88 | 94 | 1013.5 |
| 20260507033252 | 5 | 244 | 1.6 | 8.0 | 0.00 | 2.01 | 1.88 | 93 | 1013.6 |
| 20260507032530 | 5 | 158 | 3.2 | 8.0 | 0.00 | 2.01 | 1.88 | 93 | 1013.6 |
| 20260507032253 | 5 | 140 | 0.0 | 6.4 | 0.00 | 2.03 | 1.88 | 94 | 1013.6 |
| 20260507031530 | 5 | 207 | 4.8 | 6.4 | 0.00 | 2.06 | 1.88 | 94 | 1013.6 |
| 20260507031030 | 5 | 177 | 3.2 | 6.4 | 0.00 | 2.06 | 1.88 | 94 | 1013.6 |
| 20260507030530 | 5 | 235 | 0.0 | 6.4 | 0.00 | 2.08 | 1.88 | 93 | 1013.5 |
| 20260507030029 | 5 | 212 | 3.2 | 6.4 | 0.00 | 2.11 | 1.88 | 94 | 1013.5 |
| 20260507025529 | 5 | 186 | 0.0 | 6.4 | 0.00 | 2.11 | 1.88 | 94 | 1013.4 |
| 20260507025029 | 6 | 89 | 0.0 | 6.4 | 0.00 | 2.11 | 1.88 | 93 | 1013.5 |
| 20260507024529 | 5 | 164 | 3.2 | 6.4 | 0.00 | 2.11 | 1.88 | 94 | 1013.5 |
| 20260507024029 | 5 | 200 | 1.6 | 6.4 | 0.00 | 2.11 | 1.88 | 94 | 1013.6 |
| 20260507023528 | 5 | 143 | 1.6 | 6.4 | 0.00 | 2.13 | 1.88 | 94 | 1013.3 |
| 20260507023253 | 5 | 208 | 3.2 | 6.4 | 0.00 | 2.13 | 1.88 | 94 | 1013.5 |
| 20260507022528 | 5 | 187 | 3.2 | 6.4 | 0.00 | 2.13 | 1.88 | 94 | 1013.5 |
| 20260507022028 | 5 | 190 | 3.2 | 4.8 | 0.00 | 2.13 | 1.88 | 94 | 1013.5 |
| 20260507021527 | 5 | 187 | 3.2 | 6.4 | 0.00 | 2.13 | 1.88 | 94 | 1013.5 |
| 20260507021027 | 5 | 140 | 1.6 | 8.0 | 0.00 | 2.13 | 1.88 | 94 | 1013.8 |
| 20260507020751 | 5 | 196 | 3.2 | 8.0 | 0.00 | 2.13 | 1.88 | 94 | 1013.7 |
| 20260507020026 | 5 | 197 | 4.8 | 9.7 | 0.00 | 2.13 | 1.88 | 94 | 1013.7 |
| 20260507015526 | 5 | 191 | 3.2 | 12.9 | 0.00 | 2.13 | 1.88 | 94 | 1013.6 |
| 20260507015026 | 5 | 212 | 6.4 | 12.9 | 0.00 | 2.13 | 1.88 | 94 | 1013.8 |
| 20260507014526 | 5 | 184 | 3.2 | 6.4 | 0.00 | 2.13 | 1.88 | 94 | 1013.8 |
| 20260507014026 | 5 | 161 | 1.6 | 6.4 | 0.00 | 2.13 | 1.88 | 94 | 1013.7 |
| 20260507013526 | 5 | 157 | 0.0 | 4.8 | 0.00 | 2.16 | 1.88 | 95 | 1013.7 |
| 20260507013025 | 5 | 129 | 0.0 | 4.8 | 0.00 | 2.16 | 1.88 | 95 | 1013.5 |
| 20260507012526 | 5 | 176 | 3.2 | 6.4 | 0.00 | 2.16 | 1.88 | 95 | 1013.4 |
| 20260507012025 | 5 | 177 | 3.2 | 8.0 | 0.00 | 2.16 | 1.88 | 95 | 1013.2 |
| 20260507011525 | 5 | 204 | 3.2 | 8.0 | 0.00 | 2.16 | 1.88 | 95 | 1013.4 |
| 20260507011024 | 5 | 50 | 0.0 | 6.4 | 0.00 | 2.18 | 1.88 | 95 | 1013.0 |
| 20260507010525 | 5 | 285 | 3.2 | 6.4 | 0.00 | 2.21 | 1.88 | 95 | 1013.5 |
| 20260507010024 | 5 | 316 | 4.8 | 8.0 | 0.00 | 2.21 | 1.88 | 95 | 1013.3 |
| 20260507005524 | 5 | 294 | 1.6 | 8.0 | 0.00 | 2.24 | 1.88 | 96 | 1013.4 |
| 20260507005024 | 5 | 212 | 6.4 | 8.0 | 0.00 | 2.24 | 1.88 | 96 | 1013.5 |
| 20260507004524 | 5 | 357 | 1.6 | 9.7 | 0.00 | 2.24 | 1.88 | 96 | 1013.4 |
| 20260507004024 | 5 | 318 | 4.8 | 16.1 | 0.00 | 2.26 | 1.88 | 96 | 1013.3 |
| 20260507003523 | 5 | 329 | 3.2 | 16.1 | 0.00 | 2.26 | 1.88 | 96 | 1013.2 |
| 20260507003244 | 5 | 335 | 3.2 | 16.1 | 0.00 | 2.26 | 1.88 | 96 | 1013.1 |
| 20260507003004 | 5 | 338 | 6.4 | 14.5 | 0.00 | 2.26 | 1.88 | 95 | 1013.2 |
| 20260507002023 | 5 | 297 | 9.7 | 14.5 | 0.00 | 2.26 | 1.88 | 95 | 1013.1 |
| 20260507001523 | 6 | 280 | 6.4 | 11.3 | 0.00 | 2.26 | 1.88 | 95 | 1013.0 |
| 20260507001022 | 6 | 6 | 3.2 | 11.3 | 0.00 | 2.26 | 1.88 | 95 | 1012.6 |
| 20260507000522 | 6 | 282 | 0.0 | 9.7 | 0.00 | 2.29 | 1.88 | 95 | 1012.8 |
| 20260507000024 | 6 | 347 | 3.2 | 14.5 | 0.00 | 2.29 | 1.88 | 95 | 1012.8 |
| 20260506235522 | 6 | 324 | 0.0 | 14.5 | 0.00 | 2.31 | 1.88 | 95 | 1012.8 |
| 20260506235021 | 6 | 349 | 4.8 | 14.5 | 0.00 | 2.31 | 1.88 | 94 | 1012.6 |
| 20260506234521 | 6 | 353 | 4.8 | 14.5 | 0.00 | 2.31 | 1.88 | 94 | 1012.4 |
| 20260506234021 | 6 | 350 | 3.2 | 14.5 | 0.00 | 2.34 | 1.88 | 94 | 1012.5 |
| 20260506233521 | 6 | 338 | 9.7 | 16.1 | 0.00 | 2.34 | 1.88 | 95 | 1012.3 |
| 20260506233021 | 6 | 289 | 6.4 | 16.1 | 0.00 | 2.34 | 1.88 | 95 | 1012.3 |
| 20260506232520 | 6 | 354 | 8.0 | 17.7 | 0.00 | 2.34 | 1.88 | 95 | 1012.3 |
| 20260506232236 | 6 | 354 | 3.2 | 17.7 | 0.00 | 2.36 | 1.88 | 94 | 1012.3 |
| 20260506231520 | 6 | 297 | 4.8 | 17.7 | 0.00 | 2.39 | 1.88 | 94 | 1012.4 |
| 20260506231241 | 6 | 338 | 11.3 | 16.1 | 0.00 | 2.39 | 1.88 | 94 | 1012.1 |
| 20260506230743 | 6 | 4 | 8.0 | 19.3 | 0.00 | 2.41 | 1.88 | 95 | 1012.2 |
| 20260506230019 | 6 | 334 | 8.0 | 20.9 | 0.00 | 2.46 | 1.88 | 95 | 1012.2 |
| 20260506225519 | 6 | 0 | 4.8 | 27.4 | 0.00 | 2.49 | 1.88 | 95 | 1012.0 |
| 20260506225019 | 6 | 335 | 9.7 | 27.4 | 0.00 | 2.51 | 1.88 | 94 | 1011.8 |
| 20260506224519 | 6 | 348 | 17.7 | 27.4 | 0.00 | 2.54 | 1.88 | 93 | 1011.9 |
| 20260506224018 | 7 | 327 | 19.3 | 29.0 | 0.00 | 2.57 | 1.88 | 94 | 1011.9 |
| 20260506223518 | 7 | 297 | 17.7 | 29.0 | 0.00 | 2.59 | 1.88 | 94 | 1011.4 |
| 20260506223018 | 7 | 250 | 8.0 | 25.7 | 0.00 | 2.62 | 1.88 | 93 | 1011.4 |
| 20260506222518 | 8 | 274 | 11.3 | 25.7 | 0.00 | 2.64 | 1.88 | 92 | 1011.2 |
| 20260506222018 | 8 | 259 | 11.3 | 20.9 | 0.00 | 2.67 | 1.88 | 90 | 1011.2 |
| 20260506221518 | 8 | 288 | 4.8 | 20.9 | 0.00 | 2.67 | 1.88 | 89 | 1011.0 |
| 20260506221018 | 8 | 288 | 11.3 | 37.0 | 0.00 | 2.69 | 1.88 | 89 | 1011.0 |
| 20260506220517 | 8 | 195 | 4.8 | 37.0 | 0.00 | 2.72 | 1.88 | 86 | 1010.9 |
| 20260506220243 | 9 | 247 | 6.4 | 22.5 | 0.00 | 2.72 | 1.88 | 83 | 1010.9 |
| 20260506215517 | 10 | 219 | 6.4 | 24.1 | 0.00 | 2.74 | 1.88 | 80 | 1010.7 |
| 20260506215017 | 10 | 194 | 3.2 | 24.1 | 0.00 | 2.74 | 1.88 | 80 | 1010.6 |
| 20260506214516 | 10 | 200 | 3.2 | 12.9 | 0.00 | 2.79 | 1.88 | 84 | 1010.7 |
| 20260506214016 | 10 | 217 | 11.3 | 12.9 | 0.00 | 2.84 | 1.88 | 85 | 1010.5 |
| 20260506213516 | 9 | 167 | 3.2 | 9.7 | 0.00 | 2.87 | 1.88 | 84 | 1010.2 |
| 20260506213016 | 9 | 206 | 4.8 | 9.7 | 0.00 | 2.92 | 1.88 | 85 | 1010.4 |
| 20260506212515 | 9 | 177 | 4.8 | 9.7 | 0.00 | 3.00 | 1.88 | 86 | 1010.5 |
| 20260506212015 | 9 | 168 | 8.0 | 8.0 | 0.00 | 3.02 | 1.88 | 86 | 1010.3 |
| 20260506211741 | 9 | 179 | 3.2 | 8.0 | 0.00 | 3.05 | 1.88 | 87 | 1010.3 |
| 20260506211015 | 9 | 184 | 6.4 | 8.0 | 0.00 | 3.05 | 1.88 | 86 | 1010.4 |
| 20260506210734 | 9 | 211 | 4.8 | 8.0 | 0.00 | 3.05 | 1.88 | 86 | 1010.4 |
| 20260506210014 | 9 | 169 | 3.2 | 8.0 | 0.00 | 3.05 | 1.88 | 86 | 1010.5 |
| 20260506205514 | 9 | 197 | 4.8 | 8.0 | 0.00 | 3.05 | 1.88 | 85 | 1010.5 |
| 20260506205014 | 9 | 214 | 3.2 | 8.0 | 0.00 | 3.05 | 1.88 | 85 | 1010.4 |
| 20260506204513 | 9 | 129 | 4.8 | 8.0 | 0.00 | 3.05 | 1.88 | 85 | 1010.5 |
| 20260506204013 | 9 | 139 | 1.6 | 6.4 | 0.00 | 3.05 | 1.88 | 85 | 1010.4 |
| 20260506203514 | 9 | 167 | 0.0 | 6.4 | 0.00 | 3.05 | 1.88 | 85 | 1010.5 |
| 20260506203014 | 9 | 126 | 3.2 | 8.0 | 0.00 | 3.05 | 1.88 | 84 | 1010.5 |
| 20260506202513 | 9 | 198 | 3.2 | 9.7 | 0.00 | 3.05 | 1.88 | 87 | 1010.3 |
| 20260506202235 | 8 | 173 | 6.4 | 9.7 | 0.00 | 3.05 | 1.88 | 86 | 1010.5 |
| 20260506201737 | 9 | 151 | 6.4 | 8.0 | 0.00 | 3.05 | 1.88 | 86 | 1010.6 |
| 20260506201012 | 8 | 138 | 3.2 | 9.7 | 0.00 | 3.05 | 1.88 | 86 | 1010.7 |
| 20260506200512 | 9 | 180 | 4.8 | 9.7 | 0.00 | 3.05 | 1.88 | 88 | 1010.7 |
| 20260506200012 | 9 | 232 | 3.2 | 9.7 | 0.00 | 3.05 | 1.88 | 88 | 1010.7 |
| 20260506195511 | 9 | 150 | 4.8 | 9.7 | 0.00 | 3.05 | 1.88 | 85 | 1010.7 |
| 20260506195241 | 9 | 173 | 3.2 | 9.7 | 0.00 | 3.05 | 1.88 | 87 | 1010.6 |
| 20260506194511 | 9 | 184 | 8.0 | 8.0 | 0.00 | 3.05 | 1.88 | 89 | 1010.6 |
| 20260506194011 | 8 | 274 | 1.6 | 4.8 | 0.00 | 3.05 | 1.88 | 90 | 1010.5 |
| 20260506193511 | 8 | 206 | 3.2 | 6.4 | 0.00 | 3.05 | 1.88 | 90 | 1010.8 |
| 20260506193217 | 8 | 133 | 3.2 | 6.4 | 0.00 | 3.05 | 1.88 | 93 | 1010.6 |
| 20260506193101 | 8 | 152 | 3.2 | 6.4 | 0.00 | 3.05 | 1.88 | 91 | 1010.7 |
| 20260506192010 | 7 | 127 | 4.8 | 9.7 | 0.00 | 3.05 | 1.88 | 93 | 1010.5 |
| 20260506191510 | 7 | 81 | 3.2 | 9.7 | 0.00 | 3.05 | 1.88 | 94 | 1010.7 |
| 20260506191010 | 7 | 99 | 0.0 | 11.3 | 0.00 | 3.05 | 1.88 | 96 | 1010.4 |
| 20260506190736 | 7 | 71 | 8.0 | 11.3 | 0.00 | 3.05 | 1.88 | 95 | 1010.4 |
| 20260506190009 | 7 | 47 | 4.8 | 9.7 | 0.00 | 3.05 | 1.88 | 95 | 1010.7 |
| 20260506185509 | 7 | 61 | 4.8 | 8.0 | 0.00 | 3.05 | 1.88 | 95 | 1010.6 |
| 20260506185009 | 7 | 73 | 3.2 | 8.0 | 0.00 | 3.05 | 1.88 | 94 | 1010.7 |
| 20260506184509 | 7 | 105 | 4.8 | 8.0 | 0.00 | 3.05 | 1.88 | 97 | 1010.8 |
| 20260506184009 | 7 | 31 | 3.2 | 8.0 | 0.00 | 3.05 | 1.88 | 96 | 1010.7 |
| 20260506183509 | 7 | 27 | 4.8 | 8.0 | 0.00 | 3.05 | 1.88 | 96 | 1010.9 |
| 20260506183235 | 7 | 6 | 3.2 | 9.7 | 0.00 | 3.05 | 1.88 | 97 | 1010.8 |
| 20260506182509 | 7 | 76 | 3.2 | 9.7 | 0.00 | 3.05 | 1.88 | 96 | 1010.6 |
| 20260506182008 | 7 | 64 | 8.0 | 8.0 | 0.00 | 3.05 | 1.88 | 96 | 1010.8 |
| 20260506181508 | 7 | 355 | 3.2 | 9.7 | 0.00 | 3.05 | 1.88 | 97 | 1010.8 |
| 20260506181007 | 7 | 319 | 3.2 | 9.7 | 0.00 | 3.05 | 1.88 | 96 | 1010.7 |
| 20260506180508 | 7 | 348 | 6.4 | 9.7 | 0.00 | 3.05 | 1.88 | 96 | 1010.8 |
| 20260506180007 | 7 | 351 | 3.2 | 9.7 | 0.00 | 3.05 | 1.88 | 97 | 1010.6 |
| 20260506175507 | 7 | 65 | 4.8 | 9.7 | 0.00 | 3.05 | 1.88 | 96 | 1010.6 |
| 20260506175007 | 7 | 20 | 6.4 | 9.7 | 0.00 | 3.05 | 1.88 | 96 | 1010.7 |
| 20260506174507 | 7 | 37 | 6.4 | 9.7 | 0.00 | 3.05 | 1.88 | 95 | 1010.8 |
| 20260506174006 | 7 | 316 | 1.6 | 4.8 | 0.00 | 3.05 | 1.88 | 93 | 1010.7 |
| 20260506173506 | 7 | 10 | 3.2 | 6.4 | 0.00 | 3.05 | 1.88 | 94 | 1010.5 |
| 20260506173006 | 7 | 310 | 3.2 | 6.4 | 0.00 | 3.05 | 1.88 | 93 | 1010.7 |
| 20260506172506 | 7 | 23 | 3.2 | 6.4 | 0.00 | 3.05 | 1.88 | 94 | 1010.8 |
| 20260506172006 | 7 | 356 | 4.8 | 6.4 | 0.00 | 3.05 | 1.88 | 93 | 1010.6 |
| 20260506171726 | 7 | 6 | 6.4 | 8.0 | 0.00 | 3.05 | 1.88 | 94 | 1010.4 |
| 20260506171006 | 7 | 48 | 3.2 | 8.0 | 0.00 | 3.05 | 1.88 | 93 | 1010.4 |
| 20260506170505 | 7 | 11 | 3.2 | 8.0 | 0.00 | 3.05 | 1.88 | 92 | 1010.5 |
| 20260506170005 | 7 | 342 | 3.2 | 8.0 | 0.00 | 3.05 | 1.88 | 93 | 1010.1 |
| 20260506165505 | 7 | 316 | 4.8 | 8.0 | 0.00 | 3.05 | 1.88 | 92 | 1010.6 |
| 20260506165005 | 7 | 347 | 3.2 | 8.0 | 0.00 | 3.05 | 1.88 | 94 | 1010.2 |
| 20260506164504 | 7 | 13 | 4.8 | 6.4 | 0.00 | 3.05 | 1.88 | 92 | 1010.0 |
| 20260506164004 | 7 | 2 | 1.6 | 9.7 | 0.00 | 3.05 | 1.88 | 93 | 1010.3 |
| 20260506163946 | 7 | 351 | 0.0 | 9.7 | 0.00 | 3.05 | 1.88 | 94 | 1010.2 |
| 20260506163004 | 7 | 61 | 8.0 | 9.7 | 0.00 | 3.05 | 1.88 | 93 | 1010.4 |
| 20260506162503 | 7 | 49 | 3.2 | 9.7 | 0.00 | 3.05 | 1.88 | 92 | 1010.4 |
| 20260506162235 | 7 | 65 | 6.4 | 9.7 | 0.00 | 3.05 | 1.88 | 93 | 1010.2 |
| 20260506161726 | 7 | 349 | 4.8 | 9.7 | 0.00 | 3.05 | 1.88 | 93 | 1010.2 |
| 20260506161443 | 7 | 2 | 1.6 | 8.0 | 0.00 | 3.05 | 1.88 | 95 | 1010.3 |
| 20260506160502 | 7 | 8 | 4.8 | 8.0 | 0.00 | 3.05 | 1.88 | 93 | 1010.2 |
| 20260506160002 | 7 | 64 | 4.8 | 9.7 | 0.00 | 3.05 | 1.88 | 93 | 1010.3 |
| 20260506155503 | 7 | 36 | 4.8 | 9.7 | 0.00 | 3.05 | 1.88 | 93 | 1010.3 |
| 20260506155001 | 7 | 75 | 8.0 | 9.7 | 0.00 | 3.05 | 1.88 | 95 | 1010.1 |
| 20260506154501 | 7 | 64 | 6.4 | 9.7 | 0.00 | 3.05 | 1.88 | 95 | 1010.1 |
| 20260506154002 | 7 | 50 | 6.4 | 9.7 | 0.00 | 3.05 | 1.88 | 95 | 1010.1 |
| 20260506153501 | 7 | 25 | 3.2 | 9.7 | 0.00 | 3.05 | 1.88 | 94 | 1010.1 |
| 20260506153001 | 7 | 31 | 3.2 | 11.3 | 0.00 | 3.05 | 1.88 | 96 | 1010.2 |
| 20260506152500 | 6 | 12 | 6.4 | 11.3 | 0.00 | 3.05 | 1.88 | 95 | 1010.1 |
| 20260506152000 | 6 | 43 | 6.4 | 11.3 | 0.00 | 3.05 | 1.88 | 96 | 1010.3 |
| 20260506151500 | 6 | 54 | 3.2 | 11.3 | 0.03 | 3.05 | 1.88 | 95 | 1010.0 |
| 20260506151000 | 6 | 31 | 3.2 | 11.3 | 0.03 | 3.05 | 1.88 | 96 | 1010.0 |
| 20260506150459 | 6 | 59 | 3.2 | 11.3 | 0.03 | 3.05 | 1.88 | 97 | 1010.0 |
| 20260506150000 | 6 | 35 | 4.8 | 11.3 | 0.03 | 3.05 | 1.88 | 97 | 1009.8 |
| 20260506145459 | 6 | 71 | 6.4 | 11.3 | 0.03 | 3.05 | 1.88 | 97 | 1009.9 |
| 20260506145440 | 6 | 67 | 8.0 | 12.9 | 0.05 | 3.05 | 1.88 | 96 | 1010.1 |
| 20260506144459 | 6 | 48 | 6.4 | 12.9 | 0.05 | 3.05 | 1.88 | 96 | 1009.9 |
| 20260506143959 | 6 | 64 | 6.4 | 11.3 | 0.05 | 3.05 | 1.88 | 96 | 1009.9 |
| 20260506143459 | 6 | 80 | 4.8 | 12.9 | 0.05 | 3.05 | 1.88 | 97 | 1009.8 |
| 20260506142958 | 6 | 49 | 6.4 | 12.9 | 0.05 | 3.05 | 1.88 | 97 | 1009.8 |
| 20260506142458 | 6 | 57 | 11.3 | 11.3 | 0.05 | 3.05 | 1.88 | 97 | 1009.7 |
| 20260506141957 | 6 | 54 | 11.3 | 14.5 | 0.05 | 3.05 | 1.88 | 97 | 1009.6 |
| 20260506141457 | 6 | 124 | 4.8 | 14.5 | 0.05 | 3.05 | 1.85 | 97 | 1009.6 |
| 20260506141226 | 6 | 74 | 8.0 | 9.7 | 0.08 | 3.05 | 1.85 | 97 | 1009.9 |
| 20260506140457 | 6 | 73 | 6.4 | 16.1 | 0.08 | 3.05 | 1.85 | 98 | 1009.8 |
| 20260506135957 | 6 | 67 | 0.0 | 16.1 | 0.10 | 3.02 | 1.85 | 97 | 1009.5 |
| 20260506135456 | 6 | 67 | 9.7 | 14.5 | 0.10 | 3.02 | 1.85 | 98 | 1009.5 |
| 20260506134956 | 6 | 84 | 3.2 | 14.5 | 0.10 | 3.02 | 1.83 | 98 | 1009.5 |
| 20260506134716 | 6 | 75 | 4.8 | 9.7 | 0.10 | 3.02 | 1.83 | 99 | 1009.5 |
| 20260506133956 | 6 | 49 | 3.2 | 11.3 | 0.10 | 3.02 | 1.83 | 99 | 1009.3 |
| 20260506133455 | 6 | 79 | 4.8 | 11.3 | 0.10 | 3.02 | 1.83 | 99 | 1009.4 |
| 20260506132956 | 6 | 82 | 9.7 | 11.3 | 0.10 | 3.00 | 1.83 | 99 | 1009.7 |
| 20260506132456 | 6 | 97 | 3.2 | 14.5 | 0.13 | 3.00 | 1.83 | 98 | 1009.6 |
| 20260506131956 | 6 | 80 | 6.4 | 14.5 | 0.10 | 3.00 | 1.80 | 98 | 1009.7 |
| 20260506131455 | 6 | 54 | 6.4 | 12.9 | 0.10 | 2.97 | 1.80 | 98 | 1009.5 |
| 20260506130955 | 6 | 115 | 6.4 | 17.7 | 0.10 | 2.97 | 1.78 | 98 | 1009.5 |
| 20260506130455 | 6 | 76 | 6.4 | 17.7 | 0.13 | 2.97 | 1.78 | 99 | 1009.1 |
| 20260506125954 | 6 | 67 | 11.3 | 16.1 | 0.10 | 2.95 | 1.75 | 99 | 1009.4 |
| 20260506125454 | 6 | 54 | 9.7 | 12.9 | 0.10 | 2.92 | 1.75 | 99 | 1009.3 |
| 20260506124954 | 6 | 65 | 3.2 | 12.9 | 0.10 | 2.92 | 1.75 | 98 | 1009.4 |
| 20260506124454 | 6 | 81 | 4.8 | 14.5 | 0.10 | 2.92 | 1.73 | 98 | 1009.4 |
| 20260506123954 | 6 | 124 | 3.2 | 14.5 | 0.10 | 2.90 | 1.73 | 98 | 1009.4 |
| 20260506123927 | 6 | 83 | 9.7 | 17.7 | 0.10 | 2.90 | 1.70 | 98 | 1009.3 |
| 20260506123545 | 6 | 88 | 4.8 | 17.7 | 0.10 | 2.90 | 1.73 | 98 | 1009.3 |
| 20260506122453 | 6 | 70 | 6.4 | 16.1 | 0.10 | 2.87 | 1.70 | 99 | 1009.1 |
| 20260506121952 | 6 | 70 | 4.8 | 16.1 | 0.10 | 2.87 | 1.70 | 99 | 1009.2 |
| 20260506121452 | 6 | 65 | 4.8 | 16.1 | 0.10 | 2.87 | 1.68 | 98 | 1008.9 |
| 20260506120953 | 6 | 59 | 9.7 | 16.1 | 0.10 | 2.87 | 1.68 | 98 | 1009.0 |
| 20260506120715 | 6 | 63 | 11.3 | 17.7 | 0.10 | 2.84 | 1.65 | 99 | 1009.2 |
| 20260506115952 | 6 | 59 | 4.8 | 17.7 | 0.13 | 2.84 | 1.65 | 99 | 1008.7 |
| 20260506115451 | 6 | 75 | 8.0 | 19.3 | 0.10 | 2.82 | 1.65 | 99 | 1009.1 |